1520211600.64,14512,8.31,72194.3,-8.59,-35.95,-36.07,0,*5F
1520211601.87,14513,8.31,72196.3,-8.59,-35.95,-36.07,0,*5E
1520211603.13,14514,8.31,72198.0,-8.61,-36.01,-36.13,0,*59
1520211604.38,14515,8.31,72196.8,-8.59,-35.95,-36.13,0,*5D
1520211605.64,14516,8.38,72198.3,-8.59,-35.95,-36.13,0,*5E
1520211606.91,14517,8.31,72192.0,-8.59,-35.95,-35.95,0,*52
1520211608.15,14518,8.31,72194.3,-8.59,-35.83,-35.89,0,*57
1520211609.38,14519,8.31,72194.3,-8.59,-36.07,-36.25,0,*5C
1520211610.64,14520,8.31,72198.0,-8.61,-36.13,-36.19,0,*57
1520211611.9,14521,8.31,72196.0,-8.59,-35.83,-35.83,0,*57
1520211613.17,14522,8.31,72198.0,-8.61,-35.95,-36.01,0,*51
1520211614.43,14523,8.31,72196.8,-8.61,-36.13,-36.19,0,*54
1520211615.66,14524,8.31,72194.0,-8.59,-35.95,-36.07,0,*5A
1520211616.9,14525,8.31,72196.8,-8.61,-36.01,-36.01,0,*58
1520211618.16,14526,8.31,72194.0,-8.61,-36.01,-36.13,0,*58
1520211619.42,14527,8.31,72198.3,-8.61,-36.01,-36.13,0,*59
1520211620.69,14528,8.31,72196.0,-8.61,-36.01,-36.13,0,*56
1520211621.92,14529,8.31,72196.5,-8.61,-36.01,-36.19,0,*5D
1520211623.17,14530,8.31,72196.3,-8.61,-35.89,-35.89,0,*5C
1520211624.38,14531,8.31,72194.3,-8.59,-35.71,-35.77,0,*50
1520211625.63,14532,8.31,72196.8,-8.61,-35.77,-35.89,0,*5F
1520211626.88,14533,8.31,72198.3,-8.61,-35.77,-35.89,0,*5E
1520211628.15,14534,8.31,72198.5,-8.61,-35.89,-35.95,0,*55
1520211629.41,14535,8.31,72196.8,-8.61,-36.13,-36.31,0,*59
1520211630.65,14536,8.31,72198.0,-8.61,-36.31,-36.31,0,*5A
1520211631.89,14537,8.31,72196.8,-8.61,-36.19,-36.31,0,*51
1520211633.13,14538,8.31,72198.8,-8.61,-36.01,-36.31,0,*57
1520211634.38,14539,8.31,72196.8,-8.61,-36.13,-36.19,0,*5F
1520211635.62,14540,8.31,72194.0,-8.61,-36.01,-36.19,0,*52
1520211636.87,14541,8.31,72196.8,-8.61,-35.77,-35.89,0,*5B
1520211638.12,14542,8.31,72196.0,-8.61,-35.77,-35.77,0,*59
1520211639.39,14543,8.31,72196.8,-8.61,-35.95,-36.01,0,*56
1520211640.66,14544,8.31,72196.0,-8.61,-35.89,-35.95,0,*52
1520211641.9,14545,8.31,72200.0,-8.59,-35.89,-35.95,0,*58
1520211643.15,14546,8.31,72198.8,-8.61,-35.77,-35.77,0,*5D
1520211644.37,14547,8.31,72200.3,-8.63,-35.77,-35.77,0,*5E
1520211645.64,14548,8.31,72196.5,-8.61,-35.77,-35.95,0,*5F
1520211646.89,14549,8.31,72198.5,-8.61,-35.77,-35.89,0,*53
1520211648.14,14550,8.31,72196.8,-8.61,-35.53,-35.59,0,*50
1520211649.37,14551,8.31,72198.0,-8.59,-35.35,-35.29,0,*5D
1520211650.58,14552,8.31,72196.5,-8.59,-35.13,-35.29,0,*5A
1520211651.78,14553,8.31,72194.5,-8.59,-35.13,-35.17,0,*56
1520211653.03,14554,8.31,72194.3,-8.59,-35.35,-35.35,0,*55
1520211654.26,14555,8.31,72190.8,-8.59,-35.35,-35.47,0,*51
1520211655.5,14556,8.31,72196.5,-8.59,-35.53,-35.53,0,*57
1520211656.74,14557,8.31,72196.3,-8.59,-35.71,-35.83,0,*5B
1520211657.96,14558,8.31,72196.0,-8.55,-35.65,-35.71,0,*50
1520211659.18,14559,8.31,72198.5,-8.55,-35.29,-35.29,0,*54
1520211660.39,14560,8.31,72198.3,-8.55,-35.47,-35.47,0,*5E
1520211661.62,14561,8.31,72194.5,-8.55,-35.47,-35.53,0,*5A
1520211662.83,14562,8.31,72196.8,-8.55,-35.71,-35.89,0,*5B
1520211664.07,14563,8.31,72194.3,-8.55,-35.89,-35.95,0,*50
1520211665.32,14564,8.31,72194.8,-8.55,-35.83,-35.89,0,*50
1520211666.54,14565,8.31,72196.5,-8.59,-35.65,-35.71,0,*52
1520211667.78,14566,8.31,72194.0,-8.55,-35.83,-35.89,0,*52
1520211669.04,14567,8.31,72196.0,-8.51,-35.59,-35.65,0,*52
1520211670.26,14568,8.31,72192.0,-8.55,-35.65,-35.71,0,*53
1520211671.51,14569,8.31,72194.3,-8.55,-35.65,-35.53,0,*52
1520211672.73,14570,8.31,72194.5,-8.55,-35.71,-35.89,0,*58
1520211674.0,14571,8.31,72194.5,-8.51,-35.83,-35.89,0,*50
1520211675.21,14572,8.31,72192.8,-8.55,-35.89,-36.07,0,*58
1520211676.48,14573,8.31,72198.3,-8.55,-35.95,-35.95,0,*5C
1520211677.71,14574,8.31,72198.0,-8.55,-36.07,-36.25,0,*5B
1520211678.94,14575,8.31,72194.3,-8.55,-36.13,-36.43,0,*5F
1520211680.18,14576,8.31,72196.0,-8.55,-36.25,-36.43,0,*59
1520211681.39,14577,8.31,72196.5,-8.55,-36.31,-36.43,0,*5D
1520211682.65,14578,8.31,72196.5,-8.61,-36.19,-36.49,0,*55
1520211683.88,14579,8.31,72192.8,-8.59,-36.07,-36.13,0,*5F
1520211685.11,14580,8.31,72196.0,-8.59,-36.07,-36.25,0,*5C
1520211686.37,14581,8.31,72192.8,-8.61,-36.19,-36.49,0,*53
1520211687.6,14582,8.31,72196.8,-8.59,-36.13,-36.31,0,*5E
1520211688.83,14583,8.31,72192.8,-8.59,-36.25,-36.43,0,*5F
1520211690.06,14584,8.31,72196.3,-8.59,-36.31,-36.49,0,*57
1520211691.32,14585,8.31,72192.5,-8.61,-36.19,-36.37,0,*5E
1520211692.61,14586,8.31,72194.3,-8.61,-36.37,-36.49,0,*58
1520211693.89,14587,8.31,72194.0,-8.61,-36.37,-36.49,0,*59
1520211695.15,14588,8.31,72196.5,-8.61,-36.19,-36.37,0,*53
1520211696.41,14589,8.31,72192.3,-8.61,-36.13,-36.31,0,*5E
1520211697.67,14590,8.31,72196.0,-8.61,-36.31,-36.37,0,*50
1520211698.93,14591,8.31,72194.5,-8.61,-36.19,-36.37,0,*5B
1520211700.18,14592,8.31,72194.8,-8.61,-36.13,-36.19,0,*5E
1520211701.42,14593,8.31,72194.0,-8.61,-36.31,-36.31,0,*55
1520211702.65,14594,8.31,72196.5,-8.63,-36.19,-36.37,0,*5C
1520211703.91,14595,8.31,72194.5,-8.63,-36.37,-36.49,0,*58
1520211705.17,14596,8.31,72194.3,-8.65,-36.55,-36.61,0,*53
1520211706.42,14597,8.31,72192.0,-8.63,-36.37,-36.37,0,*53
1520211707.68,14598,8.31,72196.3,-8.65,-36.25,-36.43,0,*5A
1520211708.94,14599,8.31,72194.0,-8.63,-36.25,-36.37,0,*5E
1520211710.17,14600,8.31,72196.5,-8.63,-36.13,-36.31,0,*5E
1520211711.42,14601,8.31,72198.5,-8.63,-36.13,-36.37,0,*59
1520211712.65,14602,8.31,72198.0,-8.63,-36.07,-36.37,0,*5F
1520211713.89,14603,8.31,72198.3,-8.63,-36.31,-36.49,0,*52
1520211715.15,14604,8.31,72196.3,-8.65,-36.37,-36.55,0,*58
1520211716.42,14605,8.31,72198.0,-8.65,-36.37,-36.55,0,*59
1520211717.68,14606,8.31,72196.0,-8.63,-36.37,-36.49,0,*51
1520211718.96,14607,8.31,72194.5,-8.65,-36.37,-36.61,0,*5C
1520211720.22,14608,8.31,72198.0,-8.65,-36.43,-36.61,0,*50
1520211721.43,14609,8.31,72194.0,-8.67,-36.55,-36.73,0,*57
1520211722.67,14610,8.31,72196.3,-8.67,-36.37,-36.43,0,*58
1520211723.92,14611,8.31,72196.5,-8.67,-36.25,-36.55,0,*5D
1520211725.18,14612,8.31,72198.5,-8.65,-36.37,-36.43,0,*58
1520211726.42,14613,8.31,72196.0,-8.67,-36.07,-36.25,0,*58
1520211727.63,14614,8.31,72196.5,-8.67,-36.07,-36.19,0,*50
1520211728.83,14615,8.31,72194.5,-8.67,-36.01,-36.07,0,*58
1520211730.04,14616,8.31,72194.5,-8.67,-36.07,-36.19,0,*52
1520211731.3,14617,8.31,72198.5,-8.65,-36.07,-36.37,0,*5D
1520211732.56,14618,8.31,72194.8,-8.69,-36.13,-36.19,0,*57
1520211733.77,14619,8.31,72192.8,-8.67,-36.01,-36.07,0,*54
1520211734.97,14620,8.31,72194.5,-8.67,-36.01,-36.19,0,*51
1520211736.21,14621,8.31,72196.8,-8.67,-36.19,-36.25,0,*56
1520211737.44,14622,8.31,72194.3,-8.67,-36.19,-36.37,0,*56
1520211738.69,14623,8.31,72196.0,-8.67,-36.25,-36.55,0,*5C
1520211739.91,14624,8.31,72196.5,-8.67,-36.43,-36.55,0,*5B
1520211741.19,14625,8.31,72196.5,-8.69,-36.49,-36.61,0,*59
1520211742.44,14626,8.31,72196.0,-8.67,-36.25,-36.55,0,*59
1520211743.71,14627,8.31,72196.0,-8.67,-36.25,-36.25,0,*5F
1520211744.94,14628,8.31,72192.5,-8.67,-36.19,-36.25,0,*5F
1520211746.17,14629,8.31,72198.8,-8.67,-36.19,-36.37,0,*5D
1520211747.44,14630,8.31,72198.5,-8.69,-36.31,-36.61,0,*52
1520211748.68,14631,8.31,72196.0,-8.67,-36.37,-36.55,0,*5C
1520211749.94,14632,8.31,72198.8,-8.69,-36.31,-36.49,0,*5A
1520211751.2,14633,8.31,72198.3,-8.69,-36.13,-36.31,0,*54
1520211752.44,14634,8.31,72196.5,-8.69,-36.07,-36.07,0,*53
1520211753.71,14635,8.31,72194.8,-8.69,-36.07,-36.25,0,*52
1520211754.97,14636,8.31,72196.5,-8.69,-36.13,-36.31,0,*51
1520211756.26,14637,8.31,72196.8,-8.69,-36.25,-36.49,0,*5A
1520211757.55,14638,8.31,72198.8,-8.69,-36.13,-36.25,0,*5A
1520211758.81,14639,8.31,72198.8,-8.69,-36.07,-36.25,0,*5E
1520211760.08,14640,8.31,72198.0,-8.69,-36.01,-36.13,0,*53
1520211761.34,14641,8.31,72192.0,-8.69,-36.07,-36.25,0,*51
1520211762.6,14642,8.31,72198.0,-8.69,-36.13,-36.43,0,*57
1520211763.86,14643,8.31,72196.0,-8.69,-36.13,-36.31,0,*53
1520211765.13,14644,8.31,72194.5,-8.69,-36.07,-36.25,0,*54
1520211766.39,14645,8.31,72194.3,-8.69,-36.13,-36.43,0,*50
1520211767.68,14646,8.31,72196.3,-8.69,-36.13,-36.25,0,*53
1520211768.94,14647,8.31,72194.5,-8.69,-36.25,-36.43,0,*57
1520211770.19,14648,8.31,72194.5,-8.69,-36.31,-36.43,0,*5D
1520211771.42,14649,8.31,72198.5,-8.71,-36.31,-36.49,0,*5F
1520211772.66,14650,8.31,72194.3,-8.71,-36.31,-36.61,0,*5D
1520211773.89,14651,8.31,72198.5,-8.71,-36.13,-36.31,0,*59
1520211775.17,14652,8.31,72192.8,-8.69,-36.13,-36.49,0,*5C
1520211776.42,14653,8.31,72198.0,-8.71,-36.25,-36.43,0,*5B
1520211777.65,14654,8.31,72196.0,-8.71,-36.31,-36.61,0,*59
1520211778.89,14655,8.31,72196.3,-8.71,-36.25,-36.43,0,*5D
1520211780.12,14656,8.31,72198.8,-8.71,-36.13,-36.31,0,*5E
1520211781.36,14657,8.31,72196.3,-8.71,-36.13,-36.31,0,*5F
1520211782.62,14658,8.31,72198.3,-8.71,-36.13,-36.25,0,*55
1520211783.86,14659,8.31,72194.8,-8.71,-36.07,-36.25,0,*51
1520211785.12,14660,8.31,72198.0,-8.71,-36.13,-36.25,0,*5E
1520211786.35,14661,8.31,72192.8,-8.71,-36.13,-36.31,0,*5A
1520211787.62,14662,8.31,72194.3,-8.73,-36.31,-36.37,0,*5D
1520211788.85,14663,8.31,72192.0,-8.71,-36.43,-36.61,0,*58
1520211790.09,14664,8.31,72194.3,-8.71,-36.31,-36.61,0,*5A
1520211791.32,14665,8.31,72196.0,-8.71,-36.43,-36.49,0,*54
1520211792.59,14666,8.31,72194.5,-8.73,-36.37,-36.67,0,*5A
1520211793.86,14667,8.31,72194.0,-8.73,-36.49,-36.67,0,*52
1520211795.1,14668,8.31,72192.5,-8.73,-36.31,-36.55,0,*53
1520211796.36,14669,8.31,72196.5,-8.73,-36.19,-36.37,0,*5C
1520211797.62,14670,8.31,72196.0,-8.73,-36.31,-36.49,0,*57
1520211798.86,14671,8.31,72194.3,-8.73,-36.19,-36.31,0,*53
1520211800.1,14672,8.31,72196.8,-8.73,-36.19,-36.31,0,*50
1520211801.31,14673,8.31,72196.5,-8.75,-36.19,-36.31,0,*57
1520211802.52,14674,8.31,72198.3,-8.75,-36.07,-36.19,0,*55
1520211803.81,14675,8.31,72196.8,-8.73,-35.95,-36.13,0,*50
1520211805.06,14676,8.31,72194.5,-8.73,-36.13,-36.31,0,*5E
1520211806.3,14677,8.31,72192.0,-8.75,-36.13,-36.31,0,*59
1520211807.53,14678,8.31,72196.3,-8.73,-36.07,-36.07,0,*50
1520211808.74,14679,8.31,72194.5,-8.71,-36.01,-36.07,0,*55
1520211810.03,14680,8.31,72192.5,-8.73,-36.13,-36.13,0,*57
1520211811.29,14681,8.31,72194.3,-8.73,-36.07,-36.13,0,*53
1520211812.58,14682,8.31,72194.5,-8.73,-35.95,-36.13,0,*58
1520211813.84,14683,8.31,72196.3,-8.73,-35.95,-36.07,0,*5C
1520211815.06,14684,8.31,72192.5,-8.71,-35.89,-36.01,0,*52
1520211816.31,14685,8.31,72196.5,-8.71,-35.83,-36.01,0,*59
1520211817.56,14686,8.31,72194.5,-8.73,-35.77,-35.89,0,*50
1520211818.8,14687,8.31,72196.0,-8.73,-35.59,-35.77,0,*5C
1520211820.02,14688,8.31,72192.3,-8.71,-35.71,-35.89,0,*5A
1520211821.26,14689,8.31,72192.8,-8.71,-35.83,-36.01,0,*55
1520211822.47,14690,8.31,72194.8,-8.71,-36.07,-36.31,0,*51
1520211823.71,14691,8.31,72192.3,-8.71,-36.13,-36.31,0,*55
1520211824.97,14692,8.31,72196.8,-8.71,-36.25,-36.49,0,*5C
1520211826.21,14693,8.31,72194.5,-8.71,-36.31,-36.49,0,*58
1520211827.44,14694,8.31,72192.5,-8.71,-36.13,-36.43,0,*55
1520211828.68,14695,8.31,72192.8,-8.73,-36.19,-36.31,0,*59
1520211829.91,14696,8.31,72192.5,-8.71,-36.13,-36.31,0,*52
1520211831.17,14697,8.31,72198.3,-8.73,-36.07,-36.13,0,*54
1520211832.47,14698,8.31,72192.8,-8.73,-35.95,-35.95,0,*5E
1520211833.76,14699,8.31,72192.0,-8.73,-35.95,-36.13,0,*52
1520211835.02,14700,8.31,72196.8,-8.73,-36.13,-36.19,0,*54
1520211836.25,14701,8.31,72196.3,-8.73,-36.07,-36.19,0,*50
1520211837.49,14702,8.31,72198.0,-8.71,-36.07,-36.13,0,*5B
1520211838.73,14703,8.31,72192.0,-8.71,-36.01,-36.13,0,*5C
1520211839.96,14704,8.31,72196.3,-8.71,-36.01,-36.13,0,*5B
1520211841.17,14705,8.31,72194.8,-8.71,-36.01,-36.07,0,*5F
1520211842.42,14706,8.31,72194.8,-8.73,-35.89,-35.89,0,*58
1520211843.66,14707,8.31,72194.8,-8.73,-35.89,-36.07,0,*5C
1520211844.9,14708,8.31,72196.5,-8.73,-35.89,-35.89,0,*56
1520211846.13,14709,8.31,72192.5,-8.71,-35.65,-35.71,0,*50
1520211847.35,14710,8.31,72192.8,-8.71,-36.01,-36.01,0,*5D
1520211848.59,14711,8.31,72192.5,-8.71,-36.07,-36.13,0,*59
1520211849.8,14712,8.31,72196.3,-8.71,-36.01,-36.01,0,*5F
1520211851.04,14713,8.31,72194.3,-8.71,-36.13,-36.31,0,*5E
1520211852.25,14714,8.31,72192.5,-8.71,-36.07,-36.43,0,*59
1520211853.51,14715,8.31,72198.8,-8.71,-36.13,-36.25,0,*5D
1520211854.77,14716,8.31,72192.5,-8.71,-36.25,-36.49,0,*51
1520211856.01,14717,8.31,72194.8,-8.71,-36.43,-36.61,0,*5A
1520211857.28,14718,8.25,72194.0,-8.73,-36.37,-36.67,0,*52
1520211858.52,14719,8.31,72196.0,-8.71,-36.43,-36.61,0,*54
1520211859.79,14720,8.31,72196.8,-8.73,-36.37,-36.55,0,*58
1520211861.03,14721,8.31,72198.0,-8.73,-36.31,-36.55,0,*5F
1520211862.27,14722,8.31,72194.5,-8.73,-36.19,-36.55,0,*56
1520211863.52,14723,8.31,72198.8,-8.73,-36.31,-36.67,0,*5C
1520211864.76,14724,8.31,72198.5,-8.73,-36.31,-36.55,0,*5A
1520211866.02,14725,8.31,72192.0,-8.73,-36.13,-36.31,0,*59
1520211867.28,14726,8.31,72198.0,-8.73,-36.13,-36.31,0,*5A
1520211868.51,14727,8.31,72194.5,-8.71,-36.13,-36.31,0,*59
1520211869.77,14728,8.31,72196.3,-8.73,-36.07,-36.37,0,*57
1520211871.01,14729,8.31,72196.0,-8.71,-36.01,-36.13,0,*54
1520211872.3,14730,8.31,72196.8,-8.73,-35.95,-36.13,0,*50
1520211873.54,14731,8.31,72192.3,-8.71,-35.83,-36.01,0,*57
1520211874.8,14732,8.31,72196.8,-8.71,-35.53,-35.83,0,*50
1520211876.04,14733,8.31,72194.0,-8.71,-35.95,-36.07,0,*54
1520211877.27,14734,8.31,72192.8,-8.71,-35.83,-36.07,0,*54
1520211878.51,14735,8.31,72194.8,-8.71,-36.07,-36.25,0,*5A
1520211879.77,14736,8.31,72194.5,-8.73,-36.19,-36.49,0,*5E
1520211881.03,14737,8.31,72192.8,-8.73,-35.89,-36.13,0,*5A
1520211882.24,14738,8.31,72194.3,-8.71,-35.89,-36.07,0,*52
1520211883.48,14739,8.31,72192.8,-8.71,-35.47,-35.83,0,*5E
1520211884.73,14740,8.31,72198.5,-8.69,-35.71,-35.89,0,*56
1520211885.96,14741,8.31,72194.3,-8.71,-35.53,-35.71,0,*59
1520211887.21,14742,8.31,72194.5,-8.69,-35.65,-35.71,0,*56
1520211888.48,14743,8.31,72194.5,-8.69,-35.89,-36.13,0,*52
1520211889.74,14744,8.31,72194.3,-8.69,-36.13,-36.43,0,*50
1520211891.0,14745,8.31,72198.8,-8.69,-36.13,-36.43,0,*51
1520211892.21,14746,8.31,72196.5,-8.67,-36.19,-36.43,0,*56
1520211893.47,14747,8.31,72198.0,-8.69,-36.25,-36.43,0,*56
1520211894.76,14748,8.31,72192.8,-8.69,-36.25,-36.49,0,*53
1520211896.03,14749,8.31,72198.3,-8.69,-36.43,-36.61,0,*58
1520211897.24,14750,8.31,72194.5,-8.71,-36.43,-36.67,0,*5F
1520211898.46,14751,8.31,72192.5,-8.71,-36.43,-36.67,0,*5E
1520211899.71,14752,8.31,72194.8,-8.73,-36.31,-36.55,0,*5B
1520211900.97,14753,8.31,72192.8,-8.71,-36.25,-36.61,0,*5A
1520211902.21,14754,8.31,72194.5,-8.71,-36.43,-36.61,0,*5D
1520211903.44,14755,8.31,72194.5,-8.71,-36.43,-36.49,0,*56
1520211904.7,14756,8.31,72198.0,-8.71,-36.25,-36.49,0,*55
1520211905.97,14757,8.31,72196.8,-8.73,-36.31,-36.49,0,*53
1520211907.24,14758,8.31,72194.8,-8.73,-36.37,-36.55,0,*57
1520211908.47,14759,8.31,72196.3,-8.71,-36.43,-36.61,0,*50
1520211909.72,14760,8.31,72192.3,-8.71,-36.49,-36.67,0,*56
1520211910.96,14761,8.31,72194.8,-8.73,-36.67,-36.73,0,*5C
1520211912.2,14762,8.31,72192.0,-8.71,-36.49,-36.67,0,*54
1520211913.44,14763,8.31,72192.3,-8.71,-36.49,-36.67,0,*55
1520211914.67,14764,8.31,72196.3,-8.73,-36.55,-36.85,0,*51
1520211915.91,14765,8.31,72192.8,-8.73,-36.55,-36.73,0,*59
1520211917.17,14766,8.31,72192.5,-8.73,-36.67,-36.91,0,*57
1520211918.41,14767,8.31,72196.8,-8.73,-36.67,-36.85,0,*53
1520211919.65,14768,8.25,72188.5,-8.73,-36.67,-36.85,0,*5C
1520211920.85,14769,8.31,72194.8,-8.75,-36.67,-36.85,0,*5B
1520211922.09,14770,8.25,72192.3,-8.75,-36.37,-36.67,0,*5A
1520211923.33,14771,8.31,72192.0,-8.75,-36.37,-36.55,0,*5A
1520211924.61,14772,8.31,72194.0,-8.77,-36.25,-36.55,0,*58
1520211925.91,14773,8.31,72192.0,-8.77,-36.25,-36.61,0,*5E
1520211927.16,14774,8.31,72192.8,-8.75,-36.13,-36.37,0,*5D
1520211928.39,14775,8.31,72198.8,-8.75,-36.19,-36.49,0,*5F
1520211929.61,14776,8.31,72196.5,-8.75,-36.19,-36.55,0,*51
1520211930.87,14777,8.31,72192.8,-8.77,-36.19,-36.25,0,*55
1520211932.1,14778,8.31,72194.8,-8.75,-36.19,-36.37,0,*5B
1520211933.33,14779,8.31,72194.8,-8.75,-36.19,-36.37,0,*5A
1520211934.57,14780,8.31,72194.8,-8.75,-35.95,-36.07,0,*58
1520211935.84,14781,8.31,72194.0,-8.77,-35.95,-36.19,0,*54
1520211937.07,14782,8.31,72194.8,-8.75,-36.13,-36.19,0,*58
1520211938.28,14783,8.31,72196.3,-8.75,-36.19,-36.55,0,*5B
1520211939.54,14784,8.31,72196.8,-8.75,-36.13,-36.49,0,*5B
1520211940.78,14785,8.25,72194.5,-8.77,-36.19,-36.55,0,*5F
1520211942.08,14786,8.31,72192.5,-8.77,-35.95,-36.13,0,*59
1520211943.32,14787,8.25,72192.0,-8.75,-35.89,-35.95,0,*5A
1520211944.55,14788,8.31,72194.8,-8.75,-35.77,-35.89,0,*59
1520211945.75,14789,8.31,72194.8,-8.75,-35.89,-36.07,0,*5C
1520211947.03,14790,8.31,72194.8,-8.73,-35.77,-35.95,0,*5B
1520211948.24,14791,8.31,72194.5,-8.71,-35.89,-36.07,0,*51
1520211949.53,14792,8.31,72192.5,-8.73,-35.95,-36.13,0,*58
1520211950.81,14793,8.31,72192.3,-8.73,-36.13,-36.37,0,*52
1520211952.09,14794,8.31,72192.5,-8.73,-36.13,-36.49,0,*5C
1520211953.35,14795,8.25,72188.3,-8.73,-36.13,-36.31,0,*52
1520211954.61,14796,8.31,72192.5,-8.73,-36.07,-36.13,0,*54
1520211955.87,14797,8.31,72192.5,-8.73,-36.13,-36.31,0,*50
1520211957.13,14798,8.31,72194.3,-8.73,-36.13,-36.31,0,*5F
1520211958.41,14799,8.25,72190.0,-8.73,-36.13,-36.37,0,*58
1520211959.64,14800,8.31,72194.3,-8.71,-36.13,-36.43,0,*56
1520211960.91,14801,8.31,72192.8,-8.71,-36.13,-36.25,0,*57
1520211962.16,14802,8.31,72194.5,-8.73,-36.19,-36.37,0,*5F
1520211963.4,14803,8.31,72196.3,-8.71,-36.31,-36.61,0,*55
1520211964.67,14804,8.31,72196.0,-8.73,-36.37,-36.55,0,*51
1520211965.93,14805,8.31,72194.0,-8.73,-36.19,-36.49,0,*51
1520211967.19,14806,8.31,72196.0,-8.73,-36.19,-36.49,0,*52
1520211968.42,14807,8.31,72192.5,-8.73,-36.07,-36.19,0,*59
1520211969.68,14808,8.31,72198.8,-8.73,-36.19,-36.37,0,*55
1520211970.92,14809,8.25,72192.0,-8.73,-36.19,-36.31,0,*52
1520211972.13,14810,8.25,72190.3,-8.75,-36.07,-36.07,0,*56
1520211973.4,14811,8.31,72194.0,-8.73,-35.89,-35.95,0,*5C
1520211974.67,14812,8.25,72188.0,-8.73,-35.77,-35.95,0,*5E
1520211975.89,14813,8.31,72190.5,-8.71,-35.71,-35.89,0,*56
1520211977.16,14814,8.31,72194.5,-8.73,-35.95,-36.07,0,*5C
1520211978.4,14815,8.25,72190.5,-8.71,-35.89,-35.95,0,*5A
1520211979.65,14816,8.31,72194.8,-8.71,-35.53,-35.65,0,*51
1520211980.89,14817,8.31,72192.3,-8.71,-35.47,-35.53,0,*50
1520211982.11,14818,8.25,72190.5,-8.71,-35.53,-35.71,0,*5A
1520211983.35,14819,8.25,72188.3,-8.71,-35.35,-35.47,0,*5E
1520211984.59,14820,8.31,72190.3,-8.69,-35.29,-35.47,0,*50
1520211985.85,14821,8.31,72194.8,-8.69,-35.35,-35.47,0,*5C
1520211987.14,14822,8.25,72188.8,-8.69,-35.35,-35.53,0,*5A
1520211988.4,14823,8.31,72188.8,-8.69,-35.35,-35.47,0,*5E
1520211989.64,14824,8.31,72190.8,-8.67,-35.23,-35.29,0,*58
1520211990.88,14825,8.25,72186.8,-8.67,-35.23,-35.29,0,*59
1520211992.13,14826,8.25,72186.8,-8.67,-35.41,-35.41,0,*50
1520211993.39,14827,8.31,72188.8,-8.65,-35.47,-35.65,0,*53
1520211994.64,14828,8.25,72190.5,-8.63,-35.41,-35.53,0,*59
1520211995.9,14829,8.31,72194.0,-8.63,-35.65,-35.83,0,*53
1520211997.18,14830,8.31,72194.0,-8.65,-35.65,-35.83,0,*5D
1520211998.48,14831,8.31,72190.3,-8.65,-35.95,-35.95,0,*54
1520211999.74,14832,8.25,72188.3,-8.65,-35.83,-36.01,0,*5E
1520212000.98,14833,8.31,72188.3,-8.65,-36.19,-36.19,0,*56
1520212002.24,14834,8.31,72188.3,-8.65,-35.95,-36.19,0,*56
1520212003.47,14835,8.25,72190.5,-8.65,-36.01,-36.07,0,*56
1520212004.73,14836,8.25,72188.0,-8.63,-35.95,-36.13,0,*58
1520212005.96,14837,8.31,72190.3,-8.65,-36.01,-36.07,0,*54
1520212007.18,14838,8.25,72188.0,-8.63,-35.89,-35.89,0,*5B
1520212008.47,14839,8.31,72188.5,-8.65,-35.83,-35.83,0,*5C
1520212009.76,14840,8.31,72192.5,-8.65,-35.83,-35.95,0,*55
1520212011.06,14841,8.25,72188.8,-8.65,-35.83,-35.95,0,*54
1520212012.32,14842,8.31,72190.8,-8.63,-35.95,-36.13,0,*5B
1520212013.55,14843,8.31,72194.0,-8.65,-36.01,-36.07,0,*57
1520212014.82,14844,8.25,72194.5,-8.65,-35.95,-36.01,0,*58
1520212016.05,14845,8.31,72192.5,-8.61,-35.59,-35.71,0,*59
1520212017.26,14846,8.31,72192.3,-8.63,-35.59,-35.59,0,*52
1520212018.49,14847,8.31,72194.3,-8.63,-35.07,-35.17,0,*52
1520212019.73,14848,8.31,72192.3,-8.63,-35.07,-35.17,0,*5D
1520212021.01,14849,8.31,72194.5,-8.61,-35.07,-35.23,0,*59
1520212022.25,14850,8.31,72194.0,-8.59,-34.95,-35.13,0,*53
1520212023.49,14851,8.31,72194.0,-8.59,-34.95,-35.13,0,*52
1520212024.72,14852,8.25,72188.8,-8.59,-34.95,-35.17,0,*55
1520212025.93,14853,8.31,72194.3,-8.59,-35.01,-35.13,0,*5C
1520212027.16,14854,8.31,72192.5,-8.59,-34.95,-35.17,0,*53
1520212028.36,14855,8.31,72192.8,-8.55,-35.13,-35.17,0,*51
1520212029.57,14856,8.25,72188.0,-8.55,-35.17,-35.29,0,*5B
1520212030.78,14857,8.25,72188.3,-8.55,-35.17,-35.29,0,*5A
1520212032.07,14858,8.31,72190.5,-8.51,-35.07,-35.23,0,*5A
1520212033.3,14859,8.25,72188.0,-8.55,-35.29,-35.35,0,*54
1520212034.56,14860,8.31,72192.8,-8.51,-35.29,-35.41,0,*59
1520212035.81,14861,8.31,72192.8,-8.51,-35.29,-35.29,0,*56
1520212037.06,14862,8.31,72192.8,-8.51,-35.47,-35.65,0,*55
1520212038.3,14863,8.31,72192.5,-8.51,-35.47,-35.59,0,*5B
1520212039.56,14864,8.25,72192.8,-8.51,-35.29,-35.41,0,*5D
1520212040.82,14865,8.25,72192.0,-8.49,-35.23,-35.35,0,*5C
1520212042.1,14866,8.31,72192.3,-8.47,-35.23,-35.23,0,*56
1520212043.38,14867,8.25,72194.8,-8.47,-35.41,-35.53,0,*54
1520212044.64,14868,8.25,72194.5,-8.49,-35.35,-35.41,0,*55
1520212045.92,14869,8.31,72194.5,-8.47,-35.07,-35.23,0,*5F
1520212047.18,14870,8.31,72198.5,-8.49,-35.23,-35.23,0,*5F
1520212048.47,14871,8.31,72196.5,-8.47,-35.23,-35.41,0,*54
1520212049.71,14872,8.31,72194.0,-8.45,-35.35,-35.47,0,*54
1520212050.95,14873,8.25,72188.3,-8.45,-35.65,-35.89,0,*52
1520212052.2,14874,8.31,72192.3,-8.45,-35.77,-35.95,0,*5B
1520212053.44,14875,8.31,72194.5,-8.45,-35.65,-35.71,0,*53
1520212054.7,14876,8.25,72188.5,-8.45,-35.35,-35.53,0,*55
1520212055.92,14877,8.31,72192.0,-8.45,-35.71,-35.89,0,*53
1520212057.17,14878,8.31,72194.0,-8.45,-35.89,-35.95,0,*56
1520212058.39,14879,8.25,72190.0,-8.45,-35.71,-35.77,0,*5C
1520212059.62,14880,8.31,72194.0,-8.45,-35.53,-35.71,0,*5C
1520212060.84,14881,8.31,72194.3,-8.45,-35.47,-35.47,0,*5D
1520212062.07,14882,8.25,72190.0,-8.43,-35.71,-35.71,0,*58
1520212063.3,14883,8.25,72188.0,-8.45,-35.71,-35.89,0,*58
1520212064.54,14884,8.25,72190.5,-8.45,-35.65,-35.77,0,*5B
1520212065.75,14885,8.31,72192.5,-8.45,-35.89,-36.07,0,*5C
1520212066.96,14886,8.31,72194.5,-8.45,-35.89,-36.07,0,*5F
1520212068.25,14887,8.31,72192.3,-8.47,-35.95,-36.13,0,*54
1520212069.48,14888,8.31,72192.5,-8.45,-35.77,-35.77,0,*54
1520212070.71,14889,8.31,72192.8,-8.45,-35.65,-35.71,0,*50
1520212071.95,14890,8.31,72192.3,-8.45,-35.65,-35.77,0,*5E
1520212073.2,14891,8.25,72192.5,-8.45,-35.65,-35.77,0,*5F
1520212074.42,14892,8.31,72192.8,-8.45,-35.77,-35.89,0,*5E
1520212075.67,14893,8.31,72192.3,-8.45,-35.89,-35.95,0,*53
1520212076.89,14894,8.25,72194.5,-8.45,-35.71,-35.77,0,*5F
1520212078.12,14895,8.31,72192.8,-8.45,-35.71,-35.89,0,*5F
1520212079.35,14896,8.31,72196.0,-8.43,-35.71,-36.07,0,*5F
1520212080.59,14897,8.31,72194.8,-8.43,-35.71,-35.77,0,*5A
1520212081.83,14898,8.25,72192.3,-8.43,-35.77,-35.89,0,*52
1520212083.07,14899,8.25,72194.3,-8.43,-35.77,-35.77,0,*52
1520212084.31,14900,8.25,72192.8,-8.45,-35.65,-35.71,0,*50
1520212085.55,14901,8.31,72198.3,-8.43,-35.71,-35.77,0,*54
1520212086.8,14902,8.25,72192.0,-8.43,-35.65,-35.71,0,*54
1520212088.04,14903,8.25,72192.8,-8.43,-35.71,-35.89,0,*57
1520212089.26,14904,8.25,72192.0,-8.45,-35.71,-35.89,0,*56
1520212090.51,14905,8.25,72194.5,-8.43,-35.77,-35.89,0,*57
1520212091.77,14906,8.31,72194.5,-8.43,-35.77,-35.95,0,*59
1520212093.01,14907,8.25,72192.3,-8.43,-35.71,-35.77,0,*52
1520212094.24,14908,8.25,72194.3,-8.43,-35.71,-35.71,0,*5B
1520212095.49,14909,8.25,72190.0,-8.43,-35.65,-35.71,0,*5F
1520212096.73,14910,8.25,72194.3,-8.43,-35.71,-35.77,0,*54
1520212097.98,14911,8.31,72194.0,-8.43,-35.53,-35.71,0,*53
1520212099.22,14912,8.25,72194.3,-8.43,-35.71,-35.77,0,*56
1520212100.45,14913,8.31,72194.0,-8.43,-35.71,-35.71,0,*51
1520212101.69,14914,8.25,72192.5,-8.43,-35.71,-35.77,0,*50
1520212102.92,14915,8.25,72194.0,-8.41,-35.59,-35.83,0,*52
1520212104.17,14916,8.25,72196.5,-8.39,-35.59,-35.65,0,*56
1520212105.43,14917,8.25,72192.8,-8.41,-35.65,-35.83,0,*5F
1520212106.69,14918,8.25,72192.3,-8.39,-35.83,-36.01,0,*5E